Weather History for Lexington, KY

Change the Weather History Date:

Friday, March 30, 2012

  Actual Average Record
Temperature  
Mean Temperature 64 °F 50 °F  
Max Temperature 78 °F 60 °F 83 °F (1895)
Min Temperature 50 °F 40 °F 17 °F (1964)
Degree Days  
Heating Degree Days 1 15  
Month to date heating degree days 285 591  
Since 1 July heating degree days 3451 4162  
Cooling Degree Days 0 0  
Month to date cooling degree days 34 0  
Year to date cooling degree days 34 0  
Growing Degree Days 14 (Base 50)    
Moisture  
Dew Point 51 °F    
Average Humidity 67    
Maximum Humidity 84    
Minimum Humidity 49    
Precipitation  
Precipitation T in 0.14 in 2.02 in (1940)
Month to date precipitation 3.31 3.94  
Year to date precipitation 9.94 10.34  
Snow  
Snow 0.00 in 0.10 in 0.50 in (1987)
Month to date snowfall 5.3 1.4  
Since 1 July snowfall 7.6 12.7  
Snow Depth 0.00 in    
Sea Level Pressure  
Sea Level Pressure 29.86 in    
Wind  
Wind Speed 10 mph (South)    
Max Wind Speed 23 mph    
Max Gust Speed 31 mph    
Visibility 10 miles    
Events      
T = Trace of Precipitation, MM = Missing Value Source: NWS Daily Summary

Daily Weather History Graph

Daily Weather History Graph

Search for Another Location

Airport:

Trip Planner

Search our weather history database for the weather conditions in past years. The results will help you decide how hot, cold, wet, or windy it might be!

Date:

Astronomy

Mar. 30, 2012 Rise Set
Actual Time 7:25 AM EDT 8:00 PM EDT
Civil Twilight 6:59 AM EDT 8:26 PM EDT
Nautical Twilight 6:28 AM EDT 8:57 PM EDT
Astronomical Twilight 5:56 AM EDT 9:29 PM EDT
Moon 12:35 PM EDT (3/30) 2:31 AM EDT (3/30)
Length of Visible Light 13h 27m
Length of Day
12h 34m
Waxing Crescent, 49% of the Moon is Illuminated
Mar 30
Waxing Crescent
Mar 30
First Quarter
Apr 6
Full
Apr 13
Last Quarter
Apr 21
New

Hourly Weather History & Observations

Time (EDT) Temp. Dew Point Humidity Pressure Visibility Wind Dir Wind Speed Gust Speed Precip Events Conditions
12:54 AM 55.0 °F 41.0 °F 59% 29.97 in 10.0 mi ENE 10.4 mph - N/A   Scattered Clouds
1:54 AM 54.0 °F 41.0 °F 62% 29.96 in 10.0 mi East 8.1 mph - N/A   Partly Cloudy
2:54 AM 54.0 °F 41.0 °F 62% 29.94 in 10.0 mi East 8.1 mph - N/A   Partly Cloudy
3:54 AM 51.1 °F 42.1 °F 71% 29.94 in 10.0 mi NE 8.1 mph - N/A   Scattered Clouds
4:54 AM 51.1 °F 41.0 °F 68% 29.93 in 10.0 mi ENE 11.5 mph - N/A   Scattered Clouds
5:54 AM 52.0 °F 39.9 °F 63% 29.93 in 10.0 mi East 9.2 mph - N/A   Mostly Cloudy
6:54 AM 51.8 °F 39.2 °F 62% 29.93 in 10.0 mi ESE 10.4 mph - N/A   Mostly Cloudy
7:54 AM 51.1 °F 41.0 °F 68% 29.92 in 10.0 mi ESE 6.9 mph - N/A   Mostly Cloudy
8:54 AM 53.1 °F 42.1 °F 66% 29.93 in 10.0 mi SE 8.1 mph - N/A   Overcast
9:54 AM 55.9 °F 45.0 °F 67% 29.92 in 10.0 mi SSE 6.9 mph - 0.00 in   Mostly Cloudy
10:54 AM 63.0 °F 51.1 °F 65% 29.90 in 10.0 mi South 8.1 mph - N/A   Partly Cloudy
11:54 AM 68.0 °F 57.0 °F 68% 29.87 in 10.0 mi SSW 9.2 mph - N/A   Clear
12:54 PM 72.0 °F 60.1 °F 66% 29.86 in 10.0 mi SW 9.2 mph - N/A   Partly Cloudy
1:54 PM 75.0 °F 62.1 °F 64% 29.83 in 10.0 mi SW 11.5 mph - N/A   Partly Cloudy
2:54 PM 77.0 °F 59.0 °F 54% 29.80 in 10.0 mi WSW 18.4 mph - N/A   Clear
3:54 PM 78.1 °F 60.1 °F 54% 29.77 in 10.0 mi SW 12.7 mph 23.0 mph N/A   Partly Cloudy
4:54 PM 77.0 °F 59.0 °F 54% 29.75 in 10.0 mi SSW 18.4 mph 24.2 mph N/A   Partly Cloudy
5:54 PM 75.0 °F 59.0 °F 57% 29.75 in 10.0 mi SSW 17.3 mph 26.5 mph N/A   Partly Cloudy
6:54 PM 73.0 °F 54.0 °F 51% 29.75 in 10.0 mi SSW 16.1 mph 23.0 mph N/A   Partly Cloudy
7:54 PM 71.1 °F 55.9 °F 59% 29.76 in 10.0 mi SW 9.2 mph - N/A   Clear
8:54 PM 66.0 °F 59.0 °F 78% 29.79 in 10.0 mi South 9.2 mph - N/A   Partly Cloudy
9:54 PM 64.0 °F 59.0 °F 84% 29.80 in 10.0 mi South 8.1 mph - N/A   Mostly Cloudy
10:54 PM 63.0 °F 57.9 °F 84% 29.81 in 10.0 mi SSW 6.9 mph - N/A   Partly Cloudy
11:54 PM 64.9 °F 57.0 °F 75% 29.82 in 10.0 mi North 4.6 mph - N/A   Overcast